Location: C.E.K. Mees Observatory
(42.7003°N, 77.4088°W)
Time: 12:23:11
(UTC-05:00)

Envisat - Visible Passes

Search period start: 19 November 2019 00:00
Search period end: 29 November 2019 00:00
Orbit: 764 x 766 km, 98.1° (Epoch: 19 November)

Date Brightness Start Highest point End Pass type
(mag) Time Alt. Az. Time Alt. Az. Time Alt. Az.
19 Nov 5.7 06:03:34 10° NE 06:07:31 22° E 06:11:27 10° SE visible
19 Nov 3.7 17:18:42 10° SE 17:23:09 32° ENE 17:27:38 10° N visible
19 Nov 4.8 18:57:38 10° SSW 19:02:08 31° W 19:06:39 10° NNW visible
20 Nov 3.3 18:20:10 10° S 18:25:13 70° WSW 18:30:18 10° NNW visible
21 Nov 4.7 06:28:28 10° NNE 06:33:13 38° E 06:37:55 10° SSE visible
21 Nov 3.1 17:43:34 10° SSE 17:48:30 54° ENE 17:53:27 10° N visible
21 Nov 5.6 19:24:23 10° SW 19:27:51 18° W 19:31:19 10° NW visible
22 Nov 6.0 05:52:45 10° NE 05:56:08 18° E 05:59:31 10° SE visible
22 Nov 3.9 17:07:50 10° ESE 17:11:58 26° ENE 17:16:08 10° N visible
22 Nov 4.4 18:46:03 10° SSW 18:50:47 39° W 18:55:34 10° NNW visible
23 Nov 3.0 18:08:51 10° SSE 18:13:56 87° WSW 18:19:03 10° NNW visible
24 Nov 5.2 06:17:23 10° NE 06:21:52 30° E 06:26:18 10° SSE visible
24 Nov 3.3 17:32:30 10° SE 17:37:16 43° ENE 17:42:04 10° N visible
24 Nov 5.3 19:12:29 10° SW 19:16:28 23° W 19:20:28 10° NW visible
25 Nov 6.1 05:42:08 10° ENE 05:44:44 14° E 05:47:20 10° ESE visible
25 Nov 3.9 18:34:33 10° S 18:39:28 50° W 18:44:25 10° NNW visible
26 Nov 2.9 17:57:37 10° SSE 18:02:40 75° ENE 18:07:45 10° N visible
26 Nov 6.0 19:39:55 10° WSW 19:42:15 13° W 19:44:35 10° WNW visible
27 Nov 5.5 06:06:23 10° NE 06:10:30 24° E 06:14:35 10° SSE visible
27 Nov 3.6 17:21:31 10° SE 17:26:04 35° ENE 17:30:39 10° N visible
27 Nov 4.9 19:00:44 10° SSW 19:05:06 29° W 19:09:30 10° NW visible
28 Nov 6.4 05:32:11 10° ENE 05:33:19 11° E 05:34:27 10° E visible
28 Nov 3.4 18:23:08 10° S 18:28:10 64° W 18:33:13 10° NNW visible
